User: anonymous
Location: Caltech
(34.1382°N, 118.1253°W)
Time: 17:10:04
(UTC-07:00)
Language:

Gbstr 26 Del rocket - Orbit

View from above orbital plane
View from above orbital plane
View from above satellite
View from above satellite

Ground track
Ground track

The orbit data is extracted from the following two-line orbital elements,

1 25876U 99041E   14240.93523316  .00000223  00000-0  78521-4 0  4487
2 25876 051.7689 030.2831 0539799 288.5428 218.2038 14.02161385770922
Epoch (UTC): 28 August 2014 22:26:44
Eccentricity: 0.0539799
inclination: 51.7689°
perigee height: 494 km
apogee height: 1278 km
right ascension of ascending node: 30.2831°
argument of perigee: 288.5428°
revolutions per day: 14.02161385
mean anomaly at epoch: 218.2038°
orbit number at epoch: 77092

The dashed part of the orbit path shows where the satellite is in the earth's shadow,  

DLR